India Forums Logo

Diya Aur Baati Hum

India Forums > Forum Index > Diya Aur Baati Hum
Diya Aur Baati Hum, is about a Sandhya's struggle, who dreams to become an IPS officer. She dreams to break the boundaries of her narrow confined existence of middle class values.
...
<< | 15 | 16 | 17 | 18 | 19 | 20 | 21 | 22 | 23 | 24 | 25 | 26 | 27 | 28 | 29 | 30 | 31 | 32 | 33 | ... >>
TIDTopic SubjectStart DateLast Entry
2798570!!!***Happy Birthday Anushini/Yogadarshini***!!!2/21/2012 7:36:23 PM2/22/2012 8:24:12 AM
2798626sad!2/21/2012 9:04:29 PM2/21/2012 9:04:29 PM
2798642Diya aur Bati Tops again.. ---Ormax2/21/2012 9:31:30 PM2/28/2012 9:53:54 PM
2798973Sandhyas last attempt to prove --indya.com2/22/2012 1:46:12 AM2/22/2012 2:03:10 PM
2799068SP Poll: Who is the most inspiring character on SP2/22/2012 3:11:14 AM2/22/2012 10:03:06 PM
2799089new promo- ter s a pbm n typing n msg board wu plz2/22/2012 3:30:07 AM2/22/2012 3:30:07 AM
2799245Even after maasa accepts2/22/2012 6:00:51 AM2/26/2012 6:49:47 AM
2799367New Promo-22-Feb-122/22/2012 7:30:33 AM2/23/2012 8:17:30 PM
2799610Kudos to SURYA n entire crew of DABH2/22/2012 9:25:16 AM2/22/2012 11:38:40 PM
2799703Today's update will be late2/22/2012 9:57:34 AM2/23/2012 6:38:55 AM
2799886PLS HELP ME ITS URGENT...2/22/2012 11:21:18 AM2/22/2012 11:30:36 AM
2800014Good Episode but where is Sooraj in all this2/22/2012 12:55:46 PM2/23/2012 12:56:12 AM
2800034Importance of Girl child. Awesome topic on DABH!2/22/2012 1:25:33 PM2/24/2012 3:06:39 AM
2800059Anas and Deepika pics2/22/2012 1:59:40 PM2/23/2012 4:28:05 AM
2800218Ghatiya Epi2/22/2012 7:37:44 PM2/22/2012 7:37:44 PM
2800401Sandhya a.k.a Deepika was Superbbb.. today2/23/2012 12:30:33 AM2/23/2012 12:30:33 AM
2800498Real RockStar -- Sandhya2/23/2012 2:04:59 AM2/23/2012 12:45:03 PM
2800525Sandhya Brother is back...2/23/2012 2:37:03 AM2/28/2012 10:25:21 PM
2800685sbb 23.2.12 pics2/23/2012 4:51:46 AM2/23/2012 8:18:35 PM
2800730What Suraj-Sandhya say abt each other-Article2/23/2012 5:24:53 AM2/23/2012 8:16:14 PM
2800876Wednesday 22Feb12 WU2/23/2012 7:31:38 AM2/23/2012 11:05:58 AM
2800916Help Desk - reg2/23/2012 8:00:34 AM2/23/2012 8:00:34 AM
2800998FINALLY!!2/23/2012 8:50:21 AM2/24/2012 4:48:05 AM
2801040I wonder is Bhabo slightly jealous of Sandhya2/23/2012 9:13:02 AM2/23/2012 8:05:41 PM
2801054grreat!!2/23/2012 9:19:50 AM2/24/2012 3:20:53 AM
2801113DABH: WU 23rd Feb.'11 (Maasa accepted sandhya)2/23/2012 9:46:09 AM2/24/2012 6:33:15 AM
2801220Sandhya Another superb act :) Today2/23/2012 10:44:20 AM2/24/2012 4:49:12 AM
2801372Sweetest Darling-- Sandhya2/23/2012 12:32:41 PM2/23/2012 12:32:41 PM
2801395I love DABH...2/23/2012 1:00:03 PM3/4/2012 2:36:42 PM
2801425DABH in Star Utsav...2/23/2012 1:35:13 PM2/25/2012 1:16:40 AM
2801436Fantastic, Great Maasa but where is Sooraj2/23/2012 1:43:04 PM2/24/2012 1:56:48 AM
2801453Sanskara/ Moral Values- Chavi/Sandhya2/23/2012 1:59:43 PM2/23/2012 1:59:43 PM
2801514Surya SPA pictures2/23/2012 3:47:18 PM2/29/2012 2:06:19 AM
2801525Did maasa say Sandy is more goodlooking thn suraj2/23/2012 4:19:38 PM2/23/2012 10:57:35 PM
2801570Fun Post--Who is REALLY happy with Ghoongat Mukti?2/23/2012 6:33:22 PM2/25/2012 1:14:03 AM
2801633Meena's Truth Revealed2/23/2012 8:51:17 PM2/24/2012 9:54:55 AM
2801829HurryUp for Show RockStars2/24/2012 1:48:07 AM2/24/2012 4:45:33 AM
2801992SP Poll: Which leading lady is most determined?2/24/2012 5:10:18 AM2/24/2012 5:17:38 AM
2802075SBS 24.2.12 SPA PROMO SHOOT PICS2/24/2012 6:40:14 AM2/24/2012 9:50:24 AM
2802299Bhabo and babasa pictures from Starplus promotion2/24/2012 9:10:02 AM2/26/2012 4:31:22 PM
2802334The spoiler topic2/24/2012 9:29:59 AM4/21/2012 8:47:03 AM
2802387surajs father love him bless him2/24/2012 10:02:55 AM2/24/2012 10:44:00 AM
2802400For how long Sandhya will keep falling on Sooraj?2/24/2012 10:11:06 AM2/26/2012 9:35:09 AM
2802413Precap--Suraj's Efforts2/24/2012 10:18:46 AM2/27/2012 11:35:21 AM
2802477WU 24Feb12-Suraj Wants Sandy To Attend H Function2/24/2012 10:54:42 AM2/27/2012 2:43:31 AM
2802541Voting Lines Xtended to March 4th2/24/2012 11:44:42 AM3/1/2012 3:56:23 AM
2802554Absolutley Fantastic!!!2/24/2012 11:59:46 AM2/25/2012 1:05:45 AM
2802611Will Suraj be taunted???2/24/2012 12:51:56 PM2/25/2012 8:17:27 PM
2802626Hume jo uthaiyo to khud bhi phisal jaiyo2/24/2012 1:13:29 PM2/25/2012 12:16:42 PM
2802645DC Article - Anas Rashid2/24/2012 1:41:49 PM2/26/2012 5:32:54 AM
2803102DABH is now predictable and boring2/25/2012 3:15:02 AM2/26/2012 1:37:19 PM
280320525th feb - SurYa ko laga Mirchi - Must watch2/25/2012 5:26:15 AM2/26/2012 8:26:38 AM
2803234sbs 25.2.12 pics & sbs link2/25/2012 6:20:08 AM2/26/2012 8:33:38 AM
2803547Any spoiler come...2/25/2012 1:06:44 PM2/27/2012 4:54:59 AM
2803669Namakaran for Anas-Deepika2/25/2012 6:59:22 PM2/26/2012 5:08:15 AM
2803682DABH on star utsav from 8th march '122/25/2012 7:44:39 PM2/29/2012 5:00:55 AM
2803968new pics of anas & deepika2/26/2012 3:17:30 AM2/26/2012 9:09:17 AM
2804030Sandhya;s father2/26/2012 4:59:27 AM2/27/2012 4:54:02 AM
2804069GOTW: Scene to Scene2/26/2012 5:52:07 AM2/26/2012 11:25:11 AM
2804222// Happy Birthday, Birthday Girl <3 //2/26/2012 9:21:04 AM3/8/2012 1:31:24 AM
2804703Deepika's DOB2/27/2012 1:32:14 AM2/27/2012 5:49:26 AM
2804857Deepika - Anas both r Punjabi :)2/27/2012 4:10:45 AM3/3/2012 2:28:49 PM
2804900Style Check Of Our Favorite Patnis - Sandhya2/27/2012 4:47:19 AM2/27/2012 7:30:00 AM
2805218What is going on at the DABH forum2/27/2012 8:31:55 AM2/27/2012 9:12:02 AM
2805336Good Episode and Touchy Precap2/27/2012 9:23:04 AM2/27/2012 9:30:54 PM
2805582Wounds, Rewards and Lots of Love today2/27/2012 11:28:37 AM2/28/2012 4:56:46 PM
2805628WU27Feb12-SurYa funy momnts, Sandy to atnd ceremny2/27/2012 12:02:13 PM2/28/2012 1:35:11 AM
2805903demanding from SurYa fans :p2/27/2012 8:21:38 PM2/29/2012 9:53:54 AM
2806106New Cutesy Promo2/28/2012 12:14:58 AM2/28/2012 12:15:00 PM
2806230NEW PROMO2/28/2012 2:18:43 AM2/28/2012 3:54:18 AM
2806324DABH Cast - Holi wishes - 28th Feb Updated2/28/2012 3:48:17 AM2/28/2012 8:44:07 PM
2806519sbs 28.2.12 pics & link2/28/2012 5:48:47 AM2/28/2012 10:11:00 PM
2806767wat wud be the outcome of 2day's episode??????????2/28/2012 7:27:40 AM2/28/2012 12:16:30 PM
2807507Please remove all posts from sarasimanx12/28/2012 11:41:27 AM3/19/2012 12:42:29 PM
2807533WU28Feb12-Sandy receives award, Ankur back from US2/28/2012 11:53:12 AM2/29/2012 6:04:21 AM
<< | 15 | 16 | 17 | 18 | 19 | 20 | 21 | 22 | 23 | 24 | 25 | 26 | 27 | 28 | 29 | 30 | 31 | 32 | 33 | ... >>